Time,TemperatureF,DewpointF,PressureIn,WindDirection,WindDirectionDegrees,WindSpeedMPH,WindSpeedGustMPH,Humidity,HourlyPrecipIn,Conditions,Clouds,dailyrainin,SoftwareType,DateUTC
2013-06-18 00:02:00,46.7,45.2,29.41,NNE,23,0.0,0.0,94,-99.99,,,-99.99,WSDL version 423,2013-06-18 04:02:00,
2013-06-18 00:07:00,46.6,45.3,29.41,NNE,23,0.0,0.0,96,-99.99,,,-99.99,WSDL version 423,2013-06-18 04:07:00,
2013-06-18 00:12:00,46.5,45.5,29.41,NNE,23,0.0,0.0,97,-99.99,,,-99.99,WSDL version 423,2013-06-18 04:12:00,
2013-06-18 00:17:00,46.4,45.5,29.41,NNE,23,0.0,0.0,97,-99.99,,,-99.99,WSDL version 423,2013-06-18 04:17:00,
2013-06-18 00:22:00,46.4,45.5,29.41,NNE,23,0.0,0.0,97,-99.99,,,-99.99,WSDL version 423,2013-06-18 04:22:00,
2013-06-18 00:27:00,46.2,45.1,29.38,NNE,13,0.0,0.0,96,-99.99,,,-99.99,WSDL version 423,2013-06-18 04:27:00,
2013-06-18 00:32:00,46.0,44.8,29.38,North,360,0.0,0.0,96,-99.99,,,-99.99,WSDL version 423,2013-06-18 04:32:00,
2013-06-18 00:37:00,46.0,44.8,29.38,NNW,346,0.0,0.0,96,-99.99,,,-99.99,WSDL version 423,2013-06-18 04:37:00,
2013-06-18 00:42:00,46.0,45.1,29.41,NNW,338,0.0,0.0,97,-99.99,,,-99.99,WSDL version 423,2013-06-18 04:42:00,
2013-06-18 00:47:00,45.9,45.1,29.41,ENE,68,0.0,0.0,98,-99.99,,,-99.99,WSDL version 423,2013-06-18 04:47:00,
2013-06-18 00:52:00,45.7,45.1,29.41,NNW,338,0.0,0.0,98,-99.99,,,-99.99,WSDL version 423,2013-06-18 04:52:00,
2013-06-18 00:57:00,45.6,45.0,29.38,NNW,338,0.0,0.0,98,-99.99,,,-99.99,WSDL version 423,2013-06-18 04:57:00,
2013-06-18 01:02:00,45.5,44.9,29.38,North,360,0.0,0.0,98,-99.99,,,-99.99,WSDL version 423,2013-06-18 05:02:00,
2013-06-18 01:07:00,45.5,44.9,29.38,NNE,23,0.0,0.0,98,-99.99,,,-99.99,WSDL version 423,2013-06-18 05:07:00,
2013-06-18 01:12:00,45.4,45.1,29.38,ENE,68,0.0,0.0,99,-99.99,,,-99.99,WSDL version 423,2013-06-18 05:12:00,
2013-06-18 01:17:00,45.3,45.0,29.38,North,360,0.0,0.0,99,-99.99,,,-99.99,WSDL version 423,2013-06-18 05:17:00,
2013-06-18 01:22:00,45.3,45.0,29.38,North,360,0.0,0.0,99,-99.99,,,-99.99,WSDL version 423,2013-06-18 05:22:00,
2013-06-18 01:27:00,45.2,44.9,29.38,North,360,0.0,0.0,99,-99.99,,,-99.99,WSDL version 423,2013-06-18 05:27:00,
2013-06-18 01:32:00,45.1,44.9,29.38,North,360,0.0,0.0,100,-99.99,,,-99.99,WSDL version 423,2013-06-18 05:32:00,
2013-06-18 01:37:00,45.0,44.9,29.38,North,360,0.0,0.0,99,-99.99,,,-99.99,WSDL version 423,2013-06-18 05:37:00,
2013-06-18 01:42:00,45.0,45.0,29.38,North,360,0.0,0.0,100,-99.99,,,-99.99,WSDL version 423,2013-06-18 05:42:00,
2013-06-18 01:47:00,44.8,44.8,29.38,North,360,0.0,0.0,100,-99.99,,,-99.99,WSDL version 423,2013-06-18 05:47:00,
2013-06-18 01:52:00,44.7,44.7,29.38,North,360,0.0,0.0,100,-99.99,,,-99.99,WSDL version 423,2013-06-18 05:52:00,
2013-06-18 01:57:00,44.5,44.5,29.38,North,360,0.0,0.0,100,-99.99,,,-99.99,WSDL version 423,2013-06-18 05:57:00,
2013-06-18 02:02:00,44.3,44.3,29.38,NNE,15,0.0,0.0,100,-99.99,,,-99.99,WSDL version 423,2013-06-18 06:02:00,
2013-06-18 02:07:00,44.2,44.2,29.38,NNE,23,0.0,0.0,100,-99.99,,,-99.99,WSDL version 423,2013-06-18 06:07:00,
2013-06-18 02:12:00,44.2,44.2,29.38,NNW,338,0.0,0.0,100,-99.99,,,-99.99,WSDL version 423,2013-06-18 06:12:00,
2013-06-18 02:17:00,44.1,44.1,29.38,NNW,338,0.0,0.0,100,-99.99,,,-99.99,WSDL version 423,2013-06-18 06:17:00,
2013-06-18 02:22:00,44.1,44.1,29.38,NNW,338,0.0,0.0,100,-99.99,,,-99.99,WSDL version 423,2013-06-18 06:22:00,
2013-06-18 02:27:00,43.8,43.8,29.38,NNW,338,0.0,0.0,100,-99.99,,,-99.99,WSDL version 423,2013-06-18 06:27:00,
2013-06-18 02:32:00,43.6,43.6,29.38,NNW,338,0.0,0.0,100,-99.99,,,-99.99,WSDL version 423,2013-06-18 06:32:00,
2013-06-18 02:37:00,43.4,43.4,29.38,NE,45,0.0,0.0,100,-99.99,,,-99.99,WSDL version 423,2013-06-18 06:37:00,
2013-06-18 02:42:00,43.3,43.3,29.38,North,349,0.0,0.0,100,-99.99,,,-99.99,WSDL version 423,2013-06-18 06:42:00,
2013-06-18 02:47:00,43.3,43.3,29.38,NNE,18,0.0,0.0,100,-99.99,,,-99.99,WSDL version 423,2013-06-18 06:47:00,
2013-06-18 02:52:00,43.3,43.3,29.38,North,350,0.0,0.0,100,-99.99,,,-99.99,WSDL version 423,2013-06-18 06:52:00,
2013-06-18 02:57:00,43.3,43.3,29.38,North,8,0.0,0.0,100,-99.99,,,-99.99,WSDL version 423,2013-06-18 06:57:00,
2013-06-18 03:02:00,43.3,43.3,29.38,NNW,330,0.3,1.6,100,-99.99,,,-99.99,WSDL version 423,2013-06-18 07:02:00,
2013-06-18 03:07:00,43.2,43.2,29.38,NNW,338,0.0,1.6,100,-99.99,,,-99.99,WSDL version 423,2013-06-18 07:07:00,
2013-06-18 03:12:00,43.1,43.1,29.35,NNW,338,0.0,1.6,100,-99.99,,,-99.99,WSDL version 423,2013-06-18 07:12:00,
2013-06-18 03:17:00,43.2,43.2,29.35,North,352,0.0,0.0,100,-99.99,,,-99.99,WSDL version 423,2013-06-18 07:17:00,
2013-06-18 03:22:00,43.1,43.1,29.35,North,360,0.0,0.0,100,-99.99,,,-99.99,WSDL version 423,2013-06-18 07:22:00,
2013-06-18 03:27:00,42.9,42.9,29.35,NNE,15,0.0,0.0,100,-99.99,,,-99.99,WSDL version 423,2013-06-18 07:27:00,
2013-06-18 03:32:00,42.8,42.8,29.35,North,360,0.0,0.9,100,-99.99,,,-99.99,WSDL version 423,2013-06-18 07:32:00,
2013-06-18 03:37:00,42.7,42.7,29.35,North,360,0.0,0.9,100,-99.99,,,-99.99,WSDL version 423,2013-06-18 07:37:00,
2013-06-18 03:42:00,42.6,42.6,29.38,North,360,0.0,0.9,100,-99.99,,,-99.99,WSDL version 423,2013-06-18 07:42:00,
2013-06-18 03:47:00,42.5,42.5,29.38,North,360,0.0,0.0,100,-99.99,,,-99.99,WSDL version 423,2013-06-18 07:47:00,
2013-06-18 03:52:00,42.3,42.3,29.38,North,360,0.0,0.0,100,-99.99,,,-99.99,WSDL version 423,2013-06-18 07:52:00,
2013-06-18 03:57:00,42.2,42.2,29.38,North,360,0.0,0.0,100,-99.99,,,-99.99,WSDL version 423,2013-06-18 07:57:00,
2013-06-18 04:02:00,42.1,42.1,29.38,North,360,0.0,0.0,100,-99.99,,,-99.99,WSDL version 423,2013-06-18 08:02:00,
2013-06-18 04:07:00,41.9,41.9,29.38,North,360,0.0,0.0,100,-99.99,,,-99.99,WSDL version 423,2013-06-18 08:07:00,
2013-06-18 04:12:00,41.9,41.9,29.38,North,360,0.0,0.0,100,-99.99,,,-99.99,WSDL version 423,2013-06-18 08:12:00,
2013-06-18 04:17:00,41.7,41.7,29.38,North,360,0.0,0.0,100,-99.99,,,-99.99,WSDL version 423,2013-06-18 08:17:00,
2013-06-18 04:22:00,41.7,41.7,29.38,North,360,0.0,0.0,100,-99.99,,,-99.99,WSDL version 423,2013-06-18 08:22:00,
2013-06-18 04:27:00,41.6,41.6,29.38,North,360,0.0,0.0,100,-99.99,,,-99.99,WSDL version 423,2013-06-18 08:27:00,
2013-06-18 04:32:00,41.5,41.5,29.38,North,360,0.0,0.0,100,-99.99,,,-99.99,WSDL version 423,2013-06-18 08:32:00,
2013-06-18 04:37:00,41.3,41.3,29.38,North,360,0.0,0.0,100,-99.99,,,-99.99,WSDL version 423,2013-06-18 08:37:00,
2013-06-18 04:42:00,41.3,41.3,29.38,North,360,0.0,0.0,100,-99.99,,,-99.99,WSDL version 423,2013-06-18 08:42:00,
2013-06-18 04:47:00,41.2,41.2,29.38,North,355,0.0,0.0,100,-99.99,,,-99.99,WSDL version 423,2013-06-18 08:47:00,
2013-06-18 04:52:00,41.1,41.1,29.38,NNW,340,1.1,2.0,100,-99.99,,,-99.99,WSDL version 423,2013-06-18 08:52:00,
2013-06-18 04:57:00,41.0,41.0,29.35,North,5,2.0,2.7,100,-99.99,,,-99.99,WSDL version 423,2013-06-18 08:57:00,
2013-06-18 05:02:00,41.1,41.1,29.35,North,354,0.5,2.7,100,-99.99,,,-99.99,WSDL version 423,2013-06-18 09:02:00,
2013-06-18 05:07:00,41.2,41.2,29.35,North,3,1.1,2.5,100,-99.99,,,-99.99,WSDL version 423,2013-06-18 09:07:00,
2013-06-18 05:12:00,41.2,41.2,29.38,NNW,343,1.0,2.5,100,-99.99,,,-99.99,WSDL version 423,2013-06-18 09:12:00,
2013-06-18 05:17:00,41.0,41.0,29.38,NE,40,1.1,2.2,100,-99.99,,,-99.99,WSDL version 423,2013-06-18 09:17:00,
2013-06-18 05:22:00,41.1,41.1,29.38,North,360,0.0,2.0,100,-99.99,,,-99.99,WSDL version 423,2013-06-18 09:22:00,
2013-06-18 05:27:00,41.2,41.2,29.38,North,360,0.0,0.0,100,-99.99,,,-99.99,WSDL version 423,2013-06-18 09:27:00,
2013-06-18 05:32:00,41.1,41.1,29.38,North,355,0.0,0.0,100,-99.99,,,-99.99,WSDL version 423,2013-06-18 09:32:00,
2013-06-18 05:37:00,41.2,41.2,29.38,NNW,338,0.0,0.0,100,-99.99,,,-99.99,WSDL version 423,2013-06-18 09:37:00,
2013-06-18 05:42:00,41.4,41.4,29.38,NNW,338,0.0,0.0,100,-99.99,,,-99.99,WSDL version 423,2013-06-18 09:42:00,
2013-06-18 05:47:00,41.7,41.7,29.38,NNW,338,0.0,0.0,100,-99.99,,,-99.99,WSDL version 423,2013-06-18 09:47:00,
2013-06-18 05:52:00,42.0,42.0,29.38,North,352,0.2,1.1,100,-99.99,,,-99.99,WSDL version 423,2013-06-18 09:52:00,
2013-06-18 05:57:00,42.7,42.7,29.38,North,360,0.0,1.1,100,-99.99,,,-99.99,WSDL version 423,2013-06-18 09:57:00,
2013-06-18 06:02:00,43.0,43.0,29.38,North,8,0.0,0.0,100,-99.99,,,-99.99,WSDL version 423,2013-06-18 10:02:00,
2013-06-18 06:07:00,43.2,43.2,29.38,North,358,0.0,0.0,100,-99.99,,,-99.99,WSDL version 423,2013-06-18 10:07:00,
2013-06-18 06:12:00,43.5,43.5,29.38,North,354,0.0,0.0,100,-99.99,,,-99.99,WSDL version 423,2013-06-18 10:12:00,
2013-06-18 06:17:00,44.1,44.1,29.38,NNE,13,0.0,1.3,100,-99.99,,,-99.99,WSDL version 423,2013-06-18 10:17:00,
2013-06-18 06:22:00,44.4,44.4,29.38,North,360,0.0,1.3,100,-99.99,,,-99.99,WSDL version 423,2013-06-18 10:22:00,
2013-06-18 06:27:00,44.4,44.4,29.38,North,360,0.0,0.0,100,-99.99,,,-99.99,WSDL version 423,2013-06-18 10:27:00,
2013-06-18 06:32:00,44.6,44.6,29.38,North,360,0.0,0.0,100,-99.99,,,-99.99,WSDL version 423,2013-06-18 10:32:00,
2013-06-18 06:37:00,44.9,44.9,29.38,North,360,0.0,0.0,100,-99.99,,,-99.99,WSDL version 423,2013-06-18 10:37:00,
2013-06-18 06:42:00,45.3,45.3,29.38,North,360,0.0,0.0,100,-99.99,,,-99.99,WSDL version 423,2013-06-18 10:42:00,
2013-06-18 06:47:00,45.7,45.7,29.38,NNW,338,0.9,1.3,100,-99.99,,,-99.99,WSDL version 423,2013-06-18 10:47:00,
2013-06-18 06:52:00,46.0,45.9,29.38,NNW,338,0.0,1.3,100,-99.99,,,-99.99,WSDL version 423,2013-06-18 10:52:00,
2013-06-18 06:57:00,46.3,46.2,29.38,NNW,338,0.0,0.0,100,-99.99,,,-99.99,WSDL version 423,2013-06-18 10:57:00,
2013-06-18 07:02:00,46.5,46.5,29.38,NNW,338,0.0,0.0,100,-99.99,,,-99.99,WSDL version 423,2013-06-18 11:02:00,
2013-06-18 07:07:00,46.9,46.9,29.38,NNW,338,0.0,0.0,100,-99.99,,,-99.99,WSDL version 423,2013-06-18 11:07:00,
2013-06-18 07:12:00,47.1,47.1,29.38,NNW,338,0.0,0.0,100,-99.99,,,-99.99,WSDL version 423,2013-06-18 11:12:00,
2013-06-18 07:17:00,47.3,47.3,29.38,NNW,338,0.0,0.0,100,-99.99,,,-99.99,WSDL version 423,2013-06-18 11:17:00,
2013-06-18 07:22:00,47.3,47.3,29.38,NNW,338,0.0,0.9,100,-99.99,,,-99.99,WSDL version 423,2013-06-18 11:22:00,
2013-06-18 07:27:00,47.3,47.3,29.38,NNW,348,1.2,1.6,100,-99.99,,,-99.99,WSDL version 423,2013-06-18 11:27:00,
2013-06-18 07:32:00,47.3,47.3,29.38,NW,323,0.0,1.6,100,-99.99,,,-99.99,WSDL version 423,2013-06-18 11:32:00,
2013-06-18 07:37:00,47.4,47.4,29.38,North,11,0.0,1.1,100,-99.99,,,-99.99,WSDL version 423,2013-06-18 11:37:00,
2013-06-18 07:42:00,47.5,47.5,29.38,NNW,338,0.0,0.0,100,-99.99,,,-99.99,WSDL version 423,2013-06-18 11:42:00,
2013-06-18 07:47:00,47.6,47.6,29.38,NNW,338,0.0,0.0,100,-99.99,,,-99.99,WSDL version 423,2013-06-18 11:47:00,
2013-06-18 07:52:00,47.7,47.7,29.38,NNW,338,0.0,0.0,100,-99.99,,,-99.99,WSDL version 423,2013-06-18 11:52:00,
2013-06-18 07:57:00,47.9,47.9,29.38,NNW,338,0.0,0.0,100,-99.99,,,-99.99,WSDL version 423,2013-06-18 11:57:00,
2013-06-18 08:02:00,48.1,48.1,29.38,NNW,338,0.0,0.0,100,-99.99,,,-99.99,WSDL version 423,2013-06-18 12:02:00,
2013-06-18 08:07:00,48.4,48.3,29.38,NW,320,0.0,0.0,100,-99.99,,,-99.99,WSDL version 423,2013-06-18 12:07:00,
2013-06-18 08:12:00,48.6,48.6,29.38,NNW,338,0.0,0.0,100,-99.99,,,-99.99,WSDL version 423,2013-06-18 12:12:00,
2013-06-18 08:17:00,48.8,48.8,29.38,North,5,0.0,0.0,100,-99.99,,,-99.99,WSDL version 423,2013-06-18 12:17:00,
2013-06-18 08:22:00,49.0,49.0,29.38,NNW,340,0.1,1.6,100,-99.99,,,-99.99,WSDL version 423,2013-06-18 12:22:00,
2013-06-18 08:27:00,49.4,49.4,29.38,NNW,343,0.3,1.6,100,-99.99,,,-99.99,WSDL version 423,2013-06-18 12:27:00,
2013-06-18 08:32:00,49.7,49.7,29.38,North,354,0.3,1.6,100,-99.99,,,-99.99,WSDL version 423,2013-06-18 12:32:00,
2013-06-18 08:37:00,49.9,49.9,29.38,NNW,338,0.4,1.6,100,-99.99,,,-99.99,WSDL version 423,2013-06-18 12:37:00,
2013-06-18 08:42:00,50.3,50.3,29.41,NNW,338,0.0,1.6,100,-99.99,,,-99.99,WSDL version 423,2013-06-18 12:42:00,
2013-06-18 08:47:00,50.6,50.6,29.41,East,93,0.0,1.3,100,-99.99,,,-99.99,WSDL version 423,2013-06-18 12:47:00,
2013-06-18 08:52:00,51.1,51.1,29.41,SW,225,0.0,1.3,100,-99.99,,,-99.99,WSDL version 423,2013-06-18 12:52:00,
2013-06-18 08:57:00,51.6,51.6,29.41,SW,225,0.0,0.0,100,-99.99,,,-99.99,WSDL version 423,2013-06-18 12:57:00,
2013-06-18 09:02:00,52.0,52.0,29.41,SW,225,0.0,0.0,100,-99.99,,,-99.99,WSDL version 423,2013-06-18 13:02:00,
2013-06-18 09:07:00,52.6,52.5,29.41,SW,225,0.0,0.0,100,-99.99,,,-99.99,WSDL version 423,2013-06-18 13:07:00,
2013-06-18 09:12:00,53.2,53.2,29.41,SW,225,0.0,0.0,100,-99.99,,,-99.99,WSDL version 423,2013-06-18 13:12:00,
2013-06-18 09:17:00,53.9,53.9,29.41,South,180,0.0,0.0,100,-99.99,,,-99.99,WSDL version 423,2013-06-18 13:17:00,
2013-06-18 09:22:00,54.9,54.9,29.41,SSW,197,0.0,0.0,100,-99.99,,,-99.99,WSDL version 423,2013-06-18 13:22:00,
2013-06-18 09:27:00,56.5,56.4,29.41,WSW,248,0.0,0.0,99,-99.99,,,-99.99,WSDL version 423,2013-06-18 13:27:00,
2013-06-18 09:32:00,58.1,57.7,29.41,WSW,248,0.0,0.0,98,-99.99,,,-99.99,WSDL version 423,2013-06-18 13:32:00,
2013-06-18 09:37:00,60.1,59.0,29.41,WSW,248,0.0,0.0,93,-99.99,,,-99.99,WSDL version 423,2013-06-18 13:37:00,
2013-06-18 09:42:00,62.0,59.5,29.41,NNW,338,0.0,0.9,90,-99.99,,,-99.99,WSDL version 423,2013-06-18 13:42:00,
2013-06-18 09:47:00,63.0,57.9,29.41,NNW,338,0.0,0.9,82,-99.99,,,-99.99,WSDL version 423,2013-06-18 13:47:00,
2013-06-18 09:52:00,65.2,59.1,29.41,SW,228,0.0,0.0,76,-99.99,,,-99.99,WSDL version 423,2013-06-18 13:52:00,
2013-06-18 09:57:00,66.7,58.3,29.41,NW,323,1.0,2.2,71,-99.99,,,-99.99,WSDL version 423,2013-06-18 13:57:00,
2013-06-18 10:02:00,67.5,56.6,29.41,North,358,0.0,2.2,65,-99.99,,,-99.99,WSDL version 423,2013-06-18 14:02:00,
2013-06-18 10:07:00,68.2,54.7,29.41,NNW,329,0.6,2.9,56,-99.99,,,-99.99,WSDL version 423,2013-06-18 14:07:00,
2013-06-18 10:12:00,68.4,52.2,29.41,West,259,0.3,2.9,55,-99.99,,,-99.99,WSDL version 423,2013-06-18 14:12:00,
2013-06-18 10:17:00,69.2,53.1,29.41,North,6,0.7,3.1,53,-99.99,,,-99.99,WSDL version 423,2013-06-18 14:17:00,
2013-06-18 10:22:00,69.8,50.3,29.41,North,10,2.2,3.8,48,-99.99,,,-99.99,WSDL version 423,2013-06-18 14:22:00,
2013-06-18 10:27:00,70.1,48.3,29.38,North,355,1.4,3.8,46,-99.99,,,-99.99,WSDL version 423,2013-06-18 14:27:00,
2013-06-18 10:32:00,70.8,49.5,29.38,NE,51,1.8,3.8,47,-99.99,,,-99.99,WSDL version 423,2013-06-18 14:32:00,
2013-06-18 10:37:00,71.8,49.7,29.38,NNW,328,0.3,3.4,46,-99.99,,,-99.99,WSDL version 423,2013-06-18 14:37:00,
2013-06-18 10:42:00,72.9,50.1,29.41,NW,323,1.2,3.1,41,-99.99,,,-99.99,WSDL version 423,2013-06-18 14:42:00,
2013-06-18 10:47:00,73.1,48.9,29.41,North,353,1.0,2.9,42,-99.99,,,-99.99,WSDL version 423,2013-06-18 14:47:00,
2013-06-18 10:52:00,73.8,49.3,29.41,SSW,200,0.8,2.9,42,-99.99,,,-99.99,WSDL version 423,2013-06-18 14:52:00,
2013-06-18 10:57:00,72.5,47.9,29.38,South,190,0.0,2.5,42,-99.99,,,-99.99,WSDL version 423,2013-06-18 14:57:00,
2013-06-18 11:02:00,70.6,46.6,29.38,SW,225,0.2,1.3,42,-99.99,,,-99.99,WSDL version 423,2013-06-18 15:02:00,
2013-06-18 11:07:00,69.3,46.5,29.38,SW,225,0.0,1.3,44,-99.99,,,-99.99,WSDL version 423,2013-06-18 15:07:00,
2013-06-18 11:12:00,68.3,45.8,29.38,SW,225,0.0,0.0,45,-99.99,,,-99.99,WSDL version 423,2013-06-18 15:12:00,
2013-06-18 11:17:00,67.4,46.5,29.38,SW,225,0.0,0.0,48,-99.99,,,-99.99,WSDL version 423,2013-06-18 15:17:00,
2013-06-18 11:22:00,67.2,47.0,29.38,SW,225,0.0,0.0,49,-99.99,,,-99.99,WSDL version 423,2013-06-18 15:22:00,
2013-06-18 11:27:00,70.4,50.8,29.38,SW,225,0.0,0.0,49,-99.99,,,-99.99,WSDL version 423,2013-06-18 15:27:00,
2013-06-18 11:32:00,73.0,51.6,29.38,SSW,213,0.6,3.1,45,-99.99,,,-99.99,WSDL version 423,2013-06-18 15:32:00,
2013-06-18 11:37:00,74.1,48.9,29.38,SE,130,1.1,4.3,38,-99.99,,,-99.99,WSDL version 423,2013-06-18 15:37:00,
2013-06-18 11:42:00,72.8,45.3,29.38,NW,309,0.0,4.3,36,-99.99,,,-99.99,WSDL version 423,2013-06-18 15:42:00,
2013-06-18 11:47:00,71.8,45.0,29.38,WNW,295,0.0,2.0,39,-99.99,,,-99.99,WSDL version 423,2013-06-18 15:47:00,
2013-06-18 11:52:00,72.5,46.5,29.38,SW,225,0.0,0.0,38,-99.99,,,-99.99,WSDL version 423,2013-06-18 15:52:00,
2013-06-18 11:57:00,74.6,48.2,29.38,SSW,208,0.0,0.9,37,-99.99,,,-99.99,WSDL version 423,2013-06-18 15:57:00,
2013-06-18 12:02:00,76.0,46.8,29.38,NNW,332,0.3,3.1,33,-99.99,,,-99.99,WSDL version 423,2013-06-18 16:02:00,
2013-06-18 12:07:00,75.3,45.4,29.38,SW,225,0.0,3.1,34,-99.99,,,-99.99,WSDL version 423,2013-06-18 16:07:00,
2013-06-18 12:12:00,75.1,43.9,29.38,SW,223,0.7,2.2,33,-99.99,,,-99.99,WSDL version 423,2013-06-18 16:12:00,
2013-06-18 12:17:00,76.7,44.9,29.38,SW,225,0.0,2.2,31,-99.99,,,-99.99,WSDL version 423,2013-06-18 16:17:00,
2013-06-18 12:22:00,75.8,42.7,29.38,WSW,238,0.6,2.7,31,-99.99,,,-99.99,WSDL version 423,2013-06-18 16:22:00,
2013-06-18 12:27:00,75.0,41.7,29.38,SW,236,1.6,3.1,30,-99.99,,,-99.99,WSDL version 423,2013-06-18 16:27:00,
2013-06-18 12:32:00,76.7,42.4,29.38,SW,236,0.2,3.6,29,-99.99,,,-99.99,WSDL version 423,2013-06-18 16:32:00,
2013-06-18 12:37:00,78.0,41.9,29.38,SW,236,0.0,3.6,28,-99.99,,,-99.99,WSDL version 423,2013-06-18 16:37:00,
2013-06-18 12:42:00,79.1,43.4,29.38,West,280,0.6,2.2,25,-99.99,,,-99.99,WSDL version 423,2013-06-18 16:42:00,
2013-06-18 12:47:00,77.6,37.9,29.38,NNE,23,3.1,5.8,23,-99.99,,,-99.99,WSDL version 423,2013-06-18 16:47:00,
2013-06-18 12:52:00,75.5,35.5,29.38,WSW,239,2.6,5.8,24,-99.99,,,-99.99,WSDL version 423,2013-06-18 16:52:00,
2013-06-18 12:57:00,75.3,39.2,29.38,SSW,198,1.4,5.6,29,-99.99,,,-99.99,WSDL version 423,2013-06-18 16:57:00,
2013-06-18 13:02:00,77.6,41.4,29.38,SE,132,1.6,3.8,27,-99.99,,,-99.99,WSDL version 423,2013-06-18 17:02:00,
2013-06-18 13:07:00,77.3,38.6,29.38,SSW,213,1.7,3.1,25,-99.99,,,-99.99,WSDL version 423,2013-06-18 17:07:00,
2013-06-18 13:12:00,75.6,37.1,29.38,WNW,296,0.4,2.9,25,-99.99,,,-99.99,WSDL version 423,2013-06-18 17:12:00,
2013-06-18 13:17:00,75.1,39.2,29.38,SSW,213,0.7,2.7,28,-99.99,,,-99.99,WSDL version 423,2013-06-18 17:17:00,
2013-06-18 13:22:00,76.7,38.9,29.38,SW,225,2.0,4.3,25,-99.99,,,-99.99,WSDL version 423,2013-06-18 17:22:00,
2013-06-18 13:27:00,78.0,39.0,29.38,SW,228,1.3,4.3,24,-99.99,,,-99.99,WSDL version 423,2013-06-18 17:27:00,
2013-06-18 13:32:00,79.3,39.0,29.38,SW,223,0.0,2.9,24,-99.99,,,-99.99,WSDL version 423,2013-06-18 17:32:00,
2013-06-18 13:37:00,80.5,39.3,29.38,SW,228,1.3,3.6,23,-99.99,,,-99.99,WSDL version 423,2013-06-18 17:37:00,
2013-06-18 13:42:00,78.7,36.2,29.38,WSW,240,2.5,3.8,22,-99.99,,,-99.99,WSDL version 423,2013-06-18 17:42:00,
2013-06-18 13:47:00,75.8,34.5,29.38,NNW,343,2.3,5.8,23,-99.99,,,-99.99,WSDL version 423,2013-06-18 17:47:00,
2013-06-18 13:52:00,73.7,34.4,29.38,SW,218,1.0,5.8,25,-99.99,,,-99.99,WSDL version 423,2013-06-18 17:52:00,
2013-06-18 13:57:00,73.1,35.7,29.38,North,350,1.6,3.1,25,-99.99,,,-99.99,WSDL version 423,2013-06-18 17:57:00,
2013-06-18 14:02:00,72.8,36.9,29.38,SW,231,1.0,3.8,28,-99.99,,,-99.99,WSDL version 423,2013-06-18 18:02:00,
2013-06-18 14:07:00,73.3,38.2,29.38,SW,235,2.0,3.8,28,-99.99,,,-99.99,WSDL version 423,2013-06-18 18:07:00,
2013-06-18 14:12:00,73.0,38.9,29.38,WSW,248,0.4,3.1,29,-99.99,,,-99.99,WSDL version 423,2013-06-18 18:12:00,
2013-06-18 14:17:00,72.6,39.5,29.38,West,263,0.7,4.7,29,-99.99,,,-99.99,WSDL version 423,2013-06-18 18:17:00,
2013-06-18 14:22:00,74.6,40.4,29.38,WNW,301,2.4,4.7,26,-99.99,,,-99.99,WSDL version 423,2013-06-18 18:22:00,
2013-06-18 14:27:00,75.5,37.7,29.38,West,281,2.7,5.6,25,-99.99,,,-99.99,WSDL version 423,2013-06-18 18:27:00,
2013-06-18 14:32:00,75.7,37.3,29.38,SW,228,3.1,5.6,24,-99.99,,,-99.99,WSDL version 423,2013-06-18 18:32:00,
2013-06-18 14:37:00,75.6,35.0,29.38,NW,310,3.1,6.3,22,-99.99,,,-99.99,WSDL version 423,2013-06-18 18:37:00,
2013-06-18 14:42:00,75.5,34.8,29.41,NNE,30,1.2,6.3,23,-99.99,,,-99.99,WSDL version 423,2013-06-18 18:42:00,
2013-06-18 14:47:00,75.3,34.2,29.41,SW,236,2.9,5.8,22,-99.99,,,-99.99,WSDL version 423,2013-06-18 18:47:00,
2013-06-18 14:52:00,74.2,33.9,29.41,West,259,1.9,5.8,23,-99.99,,,-99.99,WSDL version 423,2013-06-18 18:52:00,
2013-06-18 14:57:00,73.1,33.5,29.38,WSW,256,1.9,4.7,24,-99.99,,,-99.99,WSDL version 423,2013-06-18 18:57:00,
2013-06-18 15:02:00,72.4,33.6,29.38,SW,225,0.7,4.3,24,-99.99,,,-99.99,WSDL version 423,2013-06-18 19:02:00,
2013-06-18 15:07:00,72.0,33.6,29.38,WSW,253,0.2,4.3,25,-99.99,,,-99.99,WSDL version 423,2013-06-18 19:07:00,
2013-06-18 15:12:00,72.6,35.4,29.41,SSW,208,0.7,2.0,26,-99.99,,,-99.99,WSDL version 423,2013-06-18 19:12:00,
2013-06-18 15:17:00,74.5,36.4,29.41,South,190,0.3,2.5,24,-99.99,,,-99.99,WSDL version 423,2013-06-18 19:17:00,
2013-06-18 15:22:00,75.2,35.6,29.41,SW,231,2.6,4.0,23,-99.99,,,-99.99,WSDL version 423,2013-06-18 19:22:00,
2013-06-18 15:27:00,75.1,35.0,29.38,SSW,213,0.7,4.0,23,-99.99,,,-99.99,WSDL version 423,2013-06-18 19:27:00,
2013-06-18 15:32:00,74.9,34.7,29.38,NW,321,0.3,3.8,23,-99.99,,,-99.99,WSDL version 423,2013-06-18 19:32:00,
2013-06-18 15:37:00,74.7,34.5,29.38,SW,225,1.5,3.6,23,-99.99,,,-99.99,WSDL version 423,2013-06-18 19:37:00,
2013-06-18 15:42:00,74.0,33.7,29.38,SW,228,2.7,4.3,23,-99.99,,,-99.99,WSDL version 423,2013-06-18 19:42:00,
2013-06-18 15:47:00,72.1,32.3,29.38,WSW,245,2.2,4.3,23,-99.99,,,-99.99,WSDL version 423,2013-06-18 19:47:00,
2013-06-18 15:52:00,71.1,32.9,29.38,SW,218,1.8,4.0,25,-99.99,,,-99.99,WSDL version 423,2013-06-18 19:52:00,
2013-06-18 16:02:00,69.8,32.7,29.38,SW,233,2.6,4.3,26,-99.99,,,-99.99,WSDL version 423,2013-06-18 20:02:00,
2013-06-18 16:07:00,69.5,33.5,29.38,WSW,245,1.3,4.3,27,-99.99,,,-99.99,WSDL version 423,2013-06-18 20:07:00,
2013-06-18 16:12:00,69.6,33.8,29.38,West,267,1.6,2.9,27,-99.99,,,-99.99,WSDL version 423,2013-06-18 20:12:00,
2013-06-18 16:17:00,69.5,33.9,29.38,NW,313,2.6,6.0,26,-99.99,,,-99.99,WSDL version 423,2013-06-18 20:17:00,
2013-06-18 16:22:00,69.6,34.8,29.38,SW,225,2.5,6.0,28,-99.99,,,-99.99,WSDL version 423,2013-06-18 20:22:00,
2013-06-18 16:27:00,69.6,35.8,29.41,WSW,250,2.1,6.3,29,-99.99,,,-99.99,WSDL version 423,2013-06-18 20:27:00,
2013-06-18 16:32:00,69.4,36.2,29.41,West,281,1.4,8.5,31,-99.99,,,-99.99,WSDL version 423,2013-06-18 20:32:00,
2013-06-18 16:37:00,68.9,37.1,29.41,WSW,240,3.3,8.5,29,-99.99,,,-99.99,WSDL version 423,2013-06-18 20:37:00,
2013-06-18 16:42:00,67.8,34.1,29.38,SW,228,2.2,6.0,29,-99.99,,,-99.99,WSDL version 423,2013-06-18 20:42:00,
2013-06-18 16:47:00,67.6,35.1,29.38,SW,230,2.1,4.9,30,-99.99,,,-99.99,WSDL version 423,2013-06-18 20:47:00,
2013-06-18 16:52:00,67.4,35.6,29.38,SSW,210,2.0,3.4,31,-99.99,,,-99.99,WSDL version 423,2013-06-18 20:52:00,
2013-06-18 16:57:00,67.5,36.4,29.38,SW,228,1.4,3.4,32,-99.99,,,-99.99,WSDL version 423,2013-06-18 20:57:00,
2013-06-18 17:02:00,67.8,37.5,29.38,SSW,200,2.0,3.4,33,-99.99,,,-99.99,WSDL version 423,2013-06-18 21:02:00,
2013-06-18 17:07:00,67.9,37.3,29.38,SW,228,1.4,3.6,32,-99.99,,,-99.99,WSDL version 423,2013-06-18 21:07:00,
2013-06-18 17:12:00,68.1,37.3,29.38,WNW,285,2.2,3.6,32,-99.99,,,-99.99,WSDL version 423,2013-06-18 21:12:00,
2013-06-18 17:17:00,68.1,37.1,29.38,SW,231,1.3,3.6,32,-99.99,,,-99.99,WSDL version 423,2013-06-18 21:17:00,
2013-06-18 17:22:00,68.2,37.1,29.38,SW,225,2.3,3.8,31,-99.99,,,-99.99,WSDL version 423,2013-06-18 21:22:00,
2013-06-18 17:27:00,68.0,36.5,29.38,SW,235,1.8,5.6,31,-99.99,,,-99.99,WSDL version 423,2013-06-18 21:27:00,
2013-06-18 17:32:00,67.8,35.7,29.38,SW,236,2.1,5.6,31,-99.99,,,-99.99,WSDL version 423,2013-06-18 21:32:00,
2013-06-18 17:37:00,67.8,36.6,29.38,SSW,200,1.9,5.6,32,-99.99,,,-99.99,WSDL version 423,2013-06-18 21:37:00,
2013-06-18 17:42:00,67.6,35.1,29.41,SW,219,2.3,4.7,31,-99.99,,,-99.99,WSDL version 423,2013-06-18 21:42:00,
2013-06-18 17:47:00,67.4,35.9,29.41,West,268,2.2,5.8,31,-99.99,,,-99.99,WSDL version 423,2013-06-18 21:47:00,
2013-06-18 17:52:00,67.3,36.1,29.41,North,349,1.9,5.8,32,-99.99,,,-99.99,WSDL version 423,2013-06-18 21:52:00,
2013-06-18 17:57:00,67.0,35.5,29.38,SW,230,2.2,4.5,31,-99.99,,,-99.99,WSDL version 423,2013-06-18 21:57:00,
2013-06-18 18:02:00,66.8,35.2,29.38,SW,228,1.9,4.5,31,-99.99,,,-99.99,WSDL version 423,2013-06-18 22:02:00,
2013-06-18 18:07:00,66.6,34.7,29.38,West,273,1.7,3.6,30,-99.99,,,-99.99,WSDL version 423,2013-06-18 22:07:00,
2013-06-18 18:12:00,66.3,33.9,29.38,West,263,1.6,3.6,30,-99.99,,,-99.99,WSDL version 423,2013-06-18 22:12:00,
2013-06-18 18:17:00,66.1,34.4,29.38,West,259,2.5,3.6,30,-99.99,,,-99.99,WSDL version 423,2013-06-18 22:17:00,
2013-06-18 18:22:00,65.9,33.0,29.38,South,177,2.3,6.5,30,-99.99,,,-99.99,WSDL version 423,2013-06-18 22:22:00,
2013-06-18 18:27:00,65.7,32.6,29.41,West,273,2.2,6.5,29,-99.99,,,-99.99,WSDL version 423,2013-06-18 22:27:00,
2013-06-18 18:32:00,65.7,32.2,29.41,West,263,1.9,6.5,29,-99.99,,,-99.99,WSDL version 423,2013-06-18 22:32:00,
2013-06-18 18:37:00,65.8,33.1,29.41,SW,228,1.4,6.5,30,-99.99,,,-99.99,WSDL version 423,2013-06-18 22:37:00,
2013-06-18 18:42:00,66.0,34.5,29.41,SW,233,1.2,2.9,32,-99.99,,,-99.99,WSDL version 423,2013-06-18 22:42:00,
2013-06-18 18:47:00,66.0,33.7,29.41,SW,220,2.4,4.9,30,-99.99,,,-99.99,WSDL version 423,2013-06-18 22:47:00,
2013-06-18 18:52:00,65.9,33.2,29.41,SW,228,1.8,4.9,29,-99.99,,,-99.99,WSDL version 423,2013-06-18 22:52:00,
2013-06-18 18:57:00,66.0,33.2,29.41,WSW,253,0.8,3.4,29,-99.99,,,-99.99,WSDL version 423,2013-06-18 22:57:00,
2013-06-18 19:02:00,-999.0,-99.9,29.41,SW,219,3.0,5.6,-999,-99.99,,,-99.99,WSDL version 423,2013-06-18 23:02:00,
2013-06-18 19:07:00,66.1,32.5,29.41,SW,225,2.0,5.6,29,-99.99,,,-99.99,WSDL version 423,2013-06-18 23:07:00,
2013-06-18 19:12:00,65.8,33.4,29.41,SW,225,1.2,4.3,30,-99.99,,,-99.99,WSDL version 423,2013-06-18 23:12:00,
2013-06-18 19:17:00,65.9,32.9,29.41,SW,228,2.0,4.9,28,-99.99,,,-99.99,WSDL version 423,2013-06-18 23:17:00,
2013-06-18 19:22:00,65.9,32.5,29.41,West,265,0.7,4.9,29,-99.99,,,-99.99,WSDL version 423,2013-06-18 23:22:00,
2013-06-18 19:27:00,66.0,32.9,29.41,SW,231,2.0,6.3,29,-99.99,,,-99.99,WSDL version 423,2013-06-18 23:27:00,
2013-06-18 19:32:00,66.0,32.9,29.41,SW,215,1.0,6.3,29,-99.99,,,-99.99,WSDL version 423,2013-06-18 23:32:00,
2013-06-18 19:37:00,66.1,32.6,29.41,SW,225,2.2,2.9,28,-99.99,,,-99.99,WSDL version 423,2013-06-18 23:37:00,
2013-06-18 19:42:00,65.3,31.1,29.41,WSW,245,0.2,3.1,28,-99.99,,,-99.99,WSDL version 423,2013-06-18 23:42:00,
2013-06-18 19:47:00,64.7,31.0,29.41,SW,235,0.3,3.1,28,-99.99,,,-99.99,WSDL version 423,2013-06-18 23:47:00,
2013-06-18 19:52:00,64.0,31.8,29.41,SW,225,0.0,2.0,30,-99.99,,,-99.99,WSDL version 423,2013-06-18 23:52:00,
2013-06-18 19:57:00,63.3,31.6,29.41,SW,225,0.0,2.5,31,-99.99,,,-99.99,WSDL version 423,2013-06-18 23:57:00,
2013-06-18 20:02:00,62.8,31.9,29.41,SW,225,0.0,2.5,31,-99.99,,,-99.99,WSDL version 423,2013-06-19 00:02:00,
2013-06-18 20:07:00,62.2,32.9,29.41,WSW,245,0.0,0.0,34,-99.99,,,-99.99,WSDL version 423,2013-06-19 00:07:00,
2013-06-18 20:12:00,61.5,32.9,29.44,SW,225,0.0,0.9,34,-99.99,,,-99.99,WSDL version 423,2013-06-19 00:12:00,
2013-06-18 20:17:00,60.9,32.5,29.44,SW,225,0.0,0.9,35,-99.99,,,-99.99,WSDL version 423,2013-06-19 00:17:00,
2013-06-18 20:22:00,60.3,32.5,29.44,SSW,208,0.0,0.0,35,-99.99,,,-99.99,WSDL version 423,2013-06-19 00:22:00,
2013-06-18 20:27:00,59.6,32.3,29.44,SW,225,0.0,0.0,36,-99.99,,,-99.99,WSDL version 423,2013-06-19 00:27:00,
2013-06-18 20:32:00,59.0,32.3,29.44,SW,225,0.0,0.0,37,-99.99,,,-99.99,WSDL version 423,2013-06-19 00:32:00,
2013-06-18 20:37:00,58.5,32.5,29.44,WSW,245,0.0,0.0,37,-99.99,,,-99.99,WSDL version 423,2013-06-19 00:37:00,
2013-06-18 20:42:00,58.1,32.4,29.44,WSW,240,0.0,1.1,37,-99.99,,,-99.99,WSDL version 423,2013-06-19 00:42:00,
2013-06-18 20:47:00,57.8,32.0,29.44,SW,228,0.0,1.3,38,-99.99,,,-99.99,WSDL version 423,2013-06-19 00:47:00,
2013-06-18 20:52:00,57.5,31.9,29.44,WSW,258,0.0,1.3,38,-99.99,,,-99.99,WSDL version 423,2013-06-19 00:52:00,
2013-06-18 20:57:00,57.2,31.8,29.44,SW,218,0.0,2.5,38,-99.99,,,-99.99,WSDL version 423,2013-06-19 00:57:00,
2013-06-18 21:02:00,57.1,31.6,29.44,SSW,208,0.2,2.5,38,-99.99,,,-99.99,WSDL version 423,2013-06-19 01:02:00,
2013-06-18 21:07:00,56.8,31.5,29.44,SW,228,0.2,3.4,38,-99.99,,,-99.99,WSDL version 423,2013-06-19 01:07:00,
2013-06-18 21:12:00,56.7,31.4,29.44,SSE,160,0.0,3.4,38,-99.99,,,-99.99,WSDL version 423,2013-06-19 01:12:00,
2013-06-18 21:17:00,56.6,31.7,29.44,West,270,0.0,3.1,39,-99.99,,,-99.99,WSDL version 423,2013-06-19 01:17:00,
2013-06-18 21:22:00,56.2,31.5,29.44,West,264,0.7,2.5,39,-99.99,,,-99.99,WSDL version 423,2013-06-19 01:22:00,
2013-06-18 21:27:00,56.1,31.5,29.44,West,260,0.0,2.2,39,-99.99,,,-99.99,WSDL version 423,2013-06-19 01:27:00,
2013-06-18 21:32:00,55.9,31.3,29.44,NNE,33,0.0,2.2,39,-99.99,,,-99.99,WSDL version 423,2013-06-19 01:32:00,
2013-06-18 21:37:00,55.7,31.6,29.44,North,8,1.0,2.0,40,-99.99,,,-99.99,WSDL version 423,2013-06-19 01:37:00,
2013-06-18 21:42:00,55.5,31.8,29.44,NNE,17,0.0,1.6,40,-99.99,,,-99.99,WSDL version 423,2013-06-19 01:42:00,
2013-06-18 21:47:00,55.1,31.9,29.44,SE,141,0.0,1.3,41,-99.99,,,-99.99,WSDL version 423,2013-06-19 01:47:00,
2013-06-18 21:52:00,54.7,31.6,29.44,SE,132,0.0,0.0,42,-99.99,,,-99.99,WSDL version 423,2013-06-19 01:52:00,
2013-06-18 21:57:00,54.5,31.8,29.47,East,98,0.8,2.0,42,-99.99,,,-99.99,WSDL version 423,2013-06-19 01:57:00,
2013-06-18 22:02:00,54.4,32.0,29.47,SE,128,0.0,2.0,43,-99.99,,,-99.99,WSDL version 423,2013-06-19 02:02:00,
2013-06-18 22:07:00,54.0,32.1,29.47,SE,129,0.0,1.6,44,-99.99,,,-99.99,WSDL version 423,2013-06-19 02:07:00,
2013-06-18 22:12:00,53.8,32.4,29.47,ESE,113,0.0,1.6,44,-99.99,,,-99.99,WSDL version 423,2013-06-19 02:12:00,
2013-06-18 22:17:00,53.5,32.5,29.47,East,93,0.0,0.9,45,-99.99,,,-99.99,WSDL version 423,2013-06-19 02:17:00,
2013-06-18 22:22:00,53.2,32.5,29.47,North,8,0.0,1.3,45,-99.99,,,-99.99,WSDL version 423,2013-06-19 02:22:00,
2013-06-18 22:27:00,53.0,32.8,29.47,NNE,31,0.0,1.6,46,-99.99,,,-99.99,WSDL version 423,2013-06-19 02:27:00,
2013-06-18 22:32:00,52.9,32.7,29.47,NE,39,0.0,2.2,46,-99.99,,,-99.99,WSDL version 423,2013-06-19 02:32:00,
2013-06-18 22:37:00,52.7,32.9,29.47,NW,320,0.7,2.7,47,-99.99,,,-99.99,WSDL version 423,2013-06-19 02:37:00,
2013-06-18 22:42:00,52.6,32.9,29.47,South,180,0.0,2.7,47,-99.99,,,-99.99,WSDL version 423,2013-06-19 02:42:00,
2013-06-18 22:47:00,52.2,32.6,29.47,SSE,163,0.0,0.0,47,-99.99,,,-99.99,WSDL version 423,2013-06-19 02:47:00,
2013-06-18 22:52:00,51.9,32.6,29.47,NNE,25,0.0,0.0,48,-99.99,,,-99.99,WSDL version 423,2013-06-19 02:52:00,
2013-06-18 22:57:00,51.6,32.7,29.47,ENE,58,0.0,0.0,49,-99.99,,,-99.99,WSDL version 423,2013-06-19 02:57:00,
2013-06-18 23:02:00,51.3,32.8,29.47,ESE,103,0.0,0.0,49,-99.99,,,-99.99,WSDL version 423,2013-06-19 03:02:00,
2013-06-18 23:07:00,51.2,32.9,29.47,ESE,113,0.0,0.0,50,-99.99,,,-99.99,WSDL version 423,2013-06-19 03:07:00,
2013-06-18 23:12:00,50.9,33.0,29.47,East,90,0.0,0.0,50,-99.99,,,-99.99,WSDL version 423,2013-06-19 03:12:00,
2013-06-18 23:17:00,50.8,33.0,29.47,East,90,0.0,0.0,51,-99.99,,,-99.99,WSDL version 423,2013-06-19 03:17:00,
2013-06-18 23:22:00,50.5,32.7,29.47,East,90,0.0,0.0,50,-99.99,,,-99.99,WSDL version 423,2013-06-19 03:22:00,
2013-06-18 23:27:00,50.2,32.8,29.47,NE,35,0.0,0.0,51,-99.99,,,-99.99,WSDL version 423,2013-06-19 03:27:00,
2013-06-18 23:32:00,49.9,32.9,29.47,NNE,23,0.0,0.0,53,-99.99,,,-99.99,WSDL version 423,2013-06-19 03:32:00,
2013-06-18 23:37:00,49.5,32.9,29.47,ESE,113,0.0,0.0,53,-99.99,,,-99.99,WSDL version 423,2013-06-19 03:37:00,
2013-06-18 23:42:00,49.1,32.8,29.47,ESE,113,0.0,0.0,54,-99.99,,,-99.99,WSDL version 423,2013-06-19 03:42:00,
2013-06-18 23:47:00,48.8,33.1,29.47,ENE,65,0.0,0.0,55,-99.99,,,-99.99,WSDL version 423,2013-06-19 03:47:00,
2013-06-18 23:52:00,48.5,33.1,29.47,North,355,0.3,2.0,55,-99.99,,,-99.99,WSDL version 423,2013-06-19 03:52:00,
2013-06-18 23:57:00,48.3,33.3,29.47,NNW,338,0.0,2.0,56,-99.99,,,-99.99,WSDL version 423,2013-06-19 03:57:00,